Location: Lake Almanor
(40.2485°N, 121.1442°W)
Time: 20:57:00
(UTC-08:00)

N. Korean satellite - Visible Passes

Search period start: 25 January 2020 00:00
Search period end: 04 February 2020 00:00
Orbit: 454 x 507 km, 97.2° (Epoch: 25 January)

Date Brightness Start Highest point End Pass type
(mag) Time Alt. Az. Time Alt. Az. Time Alt. Az.
25 Jan 7.5 05:37:37 10° NNE 05:41:07 51° E 05:44:39 10° S visible
25 Jan 9.2 17:46:18 10° SSW 17:49:07 24° W 17:51:59 10° NW visible
26 Jan 9.0 05:12:36 10° NE 05:15:33 24° E 05:18:31 10° SSE visible
26 Jan 7.9 06:46:08 10° NNW 06:48:47 20° WNW 06:51:29 10° WSW visible
27 Jan 10.1 04:48:35 10° ENE 04:49:53 12° E 04:51:12 10° ESE visible
27 Jan 7.0 06:20:03 10° N 06:23:26 40° WNW 06:26:52 10° SW visible
28 Jan 6.5 05:54:23 10° NNE 05:58:00 89° ESE 06:01:39 10° SSW visible
28 Jan 9.8 18:04:03 10° SW 18:06:04 15° W 18:08:06 10° WNW visible
29 Jan 8.0 05:29:04 10° NNE 05:32:29 39° E 05:35:55 10° SSE visible
30 Jan 9.4 05:04:13 10° NE 05:06:52 19° E 05:09:32 10° SE visible
30 Jan 7.6 06:37:12 10° NNW 06:40:13 25° WNW 06:43:15 10° SW visible
31 Jan 6.7 06:11:17 10° N 06:14:49 52° WNW 06:18:24 10° SSW visible
01 Feb 6.9 05:45:44 10° NNE 05:49:21 68° E 05:53:01 10° S visible
01 Feb 9.7 17:54:50 10° SW 17:57:20 19° W 17:59:52 10° NW visible
02 Feb 8.6 05:20:32 10° NNE 05:23:48 31° E 05:27:06 10° SSE visible
03 Feb 9.8 04:55:57 10° NE 04:58:10 15° E 05:00:24 10° SE visible
03 Feb 7.3 06:28:20 10° N 06:31:37 32° WNW 06:34:54 10° SW visible
